Regional Weather Roundup
Issued by NWS

Home | Current Version | Previous Version | Text Only | Print | Product List | Glossary Off
Versions: 1 2 3 4 5 6 7 8 9 10 11 12 13 14 15 16 17 18 19 20 21 22 23 24 25 26 27 28 29 30 31 32 33 34 35 36 37 38 39 40 41 42 43 44 45 46 47 48 49 50

987
ASUS45 KSLC 271310
RWRUT

UTAH REGIONAL WEATHER ROUNDUP
NATIONAL WEATHER SERVICE SALT LAKE CITY UT
700 AM MDT SAT AUG 27 2016

UTZ001>011-023>025-271400-

NORTHERN UTAH

CITY           SKY/WX    TMP DP  RH WIND       PRES   REMARKS
BRIGHAM CITY     N/A     49  35  58 CALM      30.06S
HILL AFB       CLEAR     58  30  34 SE15      30.08R
LOGAN          CLEAR     43  39  86 CALM      30.08R
OGDEN          CLEAR     57  30  35 S13       30.06R
PROVO AIRPORT  PTCLDY    57  39  51 E6        30.11R
SALT LAKE CITY PTCLDY    66  40  38 SE8       30.05R
VERNAL         CLOUDY    48  44  86 W6        30.19R
WENDOVER       PTCLDY    55  30  38 NW5       30.05R
HEBER CITY     PTCLDY    41  34  75 CALM      30.16R
WEST JORDAN    CLEAR     61  42  49 S14       30.09R

$$

UTZ012>022-026-027-271400-

SOUTHERN/CENTRAL UTAH

CITY           SKY/WX    TMP DP  RH WIND       PRES   REMARKS
BLANDING       CLOUDY    56  47  72 N8        30.26R
BRYCE CANYON   CLOUDY    47  43  86 N3        30.29R
CEDAR CITY     CLOUDY    55  47  74 S8        30.17R
MILFORD        CLOUDY    58  48  69 S12       30.12R
MOAB/CYNLANDS  MOCLDY    61  45  55 SE5       30.12R
PRICE          MOCLDY    50  41  71 N8        30.19R
ST GEORGE      PTSUNNY   63  54  72 SE7       30.12F

$$

REGIONAL REPORTS     COLORADO/ARIZONA

CITY           SKY/WX    TMP DP  RH WIND       PRES   REMARKS
CRAIG, CO      CLOUDY    42  38  85 CALM      30.24R
GRAND JUNCTION CLEAR     54  47  77 E5        30.17R
RIFLE          CLOUDY    48  48 100 E5        30.24R
MONTROSE       CLOUDY    50  45  83 W3        30.24R
CORTEZ         CLOUDY    54  49  83 S6        30.21R THUNDER
PAGE, AZ       LGT RAIN  63  56  78 CALM      30.13R
GRAND CANYON   LGT RAIN  53  51  93 E6        30.26F FOG
KINGMAN        CLOUDY    64  55  72 E14       30.08R
FLAGSTAFF      HVY RAIN  49  48  97 NE7       30.30F

$$

REGIONAL REPORTS    NEVADA/IDAHO/WYOMING

CITY           SKY/WX    TMP DP  RH WIND       PRES   REMARKS
LAS VEGAS, NV  MOCLDY    74  50  42 N8        30.03R
ELY            CLEAR     44  33  65 SE8       30.19R
ELKO           PTCLDY    45  22  40 NE3       30.10R
POCATELLO, ID  CLEAR     41  31  67 CALM      30.05R
BURLEY         CLEAR     45  40  82 E3        30.01R
EVANSTON, WY   CLOUDY    48  29  47 S7        30.22R
ROCK SPRINGS   CLEAR     48  33  56 W8        30.19R

$$




USA.gov is the U.S. government's official web portal to all federal, state and local government web resources and services.